Weather History for KFDY - November, 2012

Change the Weather History Date:

Tuesday, November 6, 2012

  Actual Average Record
Temperature  
Mean Temperature 36 °F -  
Max Temperature 45 °F 49 °F 75 °F (1975)
Min Temperature 26 °F 34 °F 19 °F (1967)
Degree Days  
Heating Degree Days 30    
Moisture  
Dew Point 27 °F    
Average Humidity 73    
Maximum Humidity 88    
Minimum Humidity 53    
Precipitation  
Precipitation 0.00 in - - ()
Sea Level Pressure  
Sea Level Pressure 30.04 in    
Wind  
Wind Speed 6 mph (East)    
Max Wind Speed 9 mph    
Max Gust Speed -    
Visibility 10 miles    
Events      
Averages and records for this station are not official NWS values.
T = Trace of Precipitation, MM = Missing Value Source: NWS Daily Summary

Daily Weather History Graph

Daily Weather History Graph

Search for Another Location

Airport or City:

Trip Planner

Search our weather history database for the weather conditions in past years. The results will help you decide how hot, cold, wet, or windy it might be!

Date:

Astronomy

Nov. 06, 2012 Rise Set
Actual Time 7:12 AM EST 5:24 PM EST
Civil Twilight 6:43 AM EST 5:52 PM EST
Nautical Twilight 6:10 AM EST 6:25 PM EST
Astronomical Twilight 5:38 AM EST 6:57 PM EST
Moon No Moon Rise 1:03 PM EST (11/6)
Length of Visible Light 11h 09m
Length of Day
10h 12m
Waning Gibbous, 53% of the Moon is Illuminated
Nov 6
Waning Gibbous
Nov 6
Last Quarter
Nov 13
New
Nov 20
First Quarter
Nov 28
Full

Hourly Weather History & Observations

Time (EST) Temp. Windchill Dew Point Humidity Pressure Visibility Wind Dir Wind Speed Gust Speed Precip Events Conditions
12:53 AM 30.0 °F 24.1 °F 26.1 °F 85% 30.14 in 10.0 mi ESE 5.8 mph - N/A   Clear
1:53 AM 30.0 °F 24.1 °F 26.1 °F 85% 30.13 in 10.0 mi East 5.8 mph - N/A   Clear
2:53 AM 30.0 °F 24.1 °F 25.0 °F 82% 30.12 in 10.0 mi ESE 5.8 mph - N/A   Clear
3:53 AM 30.0 °F 25.2 °F 25.0 °F 82% 30.11 in 10.0 mi ESE 4.6 mph - N/A   Clear
4:53 AM 28.9 °F 25.2 °F 25.0 °F 85% 30.11 in 10.0 mi East 3.5 mph - N/A   Clear
5:53 AM 28.0 °F 22.8 °F 25.0 °F 88% 30.11 in 9.0 mi ESE 4.6 mph - N/A   Clear
6:53 AM 27.0 °F 21.6 °F 23.0 °F 85% 30.10 in 9.0 mi SSE 4.6 mph - N/A   Clear
7:53 AM 26.1 °F 19.4 °F 23.0 °F 88% 30.10 in 7.0 mi SSE 5.8 mph - N/A   Clear
8:53 AM 33.1 °F 26.9 °F 27.0 °F 78% 30.09 in 9.0 mi SE 6.9 mph - N/A   Clear
9:53 AM 37.0 °F 34.5 °F 27.0 °F 67% 30.09 in 10.0 mi East 3.5 mph - N/A   Clear
10:53 AM 39.9 °F 37.8 °F 28.0 °F 63% 30.09 in 10.0 mi NNE 3.5 mph - N/A   Clear
11:53 AM 41.0 °F 38.0 °F 28.0 °F 60% 30.07 in 10.0 mi Variable 4.6 mph - N/A   Clear
12:53 PM 42.1 °F 40.2 °F 28.0 °F 58% 30.03 in 10.0 mi Variable 3.5 mph - N/A   Partly Cloudy
1:53 PM 43.0 °F 38.8 °F 28.0 °F 56% 30.00 in 10.0 mi ENE 6.9 mph - N/A   Clear
2:53 PM 45.0 °F 42.6 °F 28.9 °F 53% 29.99 in 10.0 mi NNE 4.6 mph - N/A   Clear
3:53 PM 44.1 °F 39.5 °F 28.0 °F 53% 29.98 in 10.0 mi ENE 8.1 mph - N/A   Clear
4:53 PM 42.1 °F 40.2 °F 27.0 °F 55% 29.97 in 10.0 mi ENE 3.5 mph - N/A   Clear
5:53 PM 39.0 °F 35.7 °F 27.0 °F 62% 29.98 in 10.0 mi East 4.6 mph - N/A   Clear
6:53 PM 37.9 °F 33.5 °F 28.0 °F 68% 29.98 in 10.0 mi ENE 5.8 mph - N/A   Clear
7:53 PM 36.0 °F 29.0 °F 28.9 °F 76% 29.98 in 10.0 mi ENE 9.2 mph - N/A   Clear
8:53 PM 35.1 °F 28.6 °F 28.0 °F 76% 29.98 in 10.0 mi ENE 8.1 mph - N/A   Clear
9:53 PM 34.0 °F 26.6 °F 28.0 °F 79% 29.97 in 10.0 mi East 9.2 mph - N/A   Clear
10:53 PM 33.1 °F 26.1 °F 28.0 °F 82% 29.95 in 10.0 mi East 8.1 mph - N/A   Clear
11:53 PM 32.0 °F 25.6 °F 28.0 °F 85% 29.94 in 10.0 mi East 6.9 mph - N/A   Clear